Location: Allonne
(49.4086°N, 2.1143°E)
Time: 15:18:26
(UTC+00:00)

USA 215 - Visible Passes

Search period start: 30 September 2023 00:00
Search period end: 10 October 2023 00:00
Orbit: 1101 x 1107 km, 123.0° (Epoch: 22 September)

Date Brightness Start Highest point End Pass type
(mag) Time Alt. Az. Time Alt. Az. Time Alt. Az.
30 Sep 5.0 00:36:45 10° E 00:39:13 24° ENE 00:39:13 24° ENE visible
30 Sep 3.2 02:19:05 10° ESE 02:25:39 80° NNE 02:26:34 67° NW visible
30 Sep 3.6 04:02:55 10° SSE 04:09:01 41° SW 04:13:56 16° WNW visible
30 Sep 4.4 18:49:42 17° ESE 18:51:03 18° ESE 18:55:21 10° SSE visible
30 Sep 3.8 20:37:08 42° SSW 20:37:08 42° SSW 20:41:27 10° SW visible
30 Sep 5.6 23:54:22 10° ENE 23:54:52 12° ENE 23:54:52 12° ENE visible
01 Oct 3.8 01:36:36 10° E 01:42:13 55° NE 01:42:13 55° NE visible
01 Oct 3.1 03:19:26 10° SE 03:25:58 69° SW 03:29:34 29° WNW visible
01 Oct 4.4 05:04:55 10° S 05:09:48 22° SW 05:14:41 10° WNW visible
01 Oct 4.1 19:53:46 30° SSE 19:53:46 30° SSE 19:57:47 10° SSW visible
01 Oct 5.3 21:41:12 14° WSW 21:41:12 14° WSW 21:41:56 10° WSW visible
02 Oct 4.6 00:54:15 10° E 00:57:48 32° ENE 00:57:48 32° ENE visible
02 Oct 3.2 02:36:35 10° ESE 02:43:09 80° NNE 02:45:09 49° NW visible
02 Oct 3.7 04:20:26 10° SSE 04:26:31 40° SW 04:32:30 11° WNW visible
02 Oct 4.7 19:10:23 17° SE 19:10:23 17° SE 19:12:53 10° SSE visible
02 Oct 5.1 20:57:49 16° SW 20:57:49 16° SW 20:58:57 10° SW visible
03 Oct 5.3 00:11:52 10° ENE 00:13:20 17° ENE 00:13:20 17° ENE visible
03 Oct 3.6 01:54:06 10° E 02:00:30 59° NNE 02:00:41 59° NNE visible
03 Oct 3.2 03:36:57 10° SE 03:43:29 68° SW 03:48:02 21° WNW visible
03 Oct 4.4 05:22:27 10° S 05:27:19 22° SW 05:32:11 10° WNW visible
03 Oct 5.1 20:14:22 14° S 20:14:22 14° S 20:15:18 10° SSW visible
04 Oct 4.3 01:11:46 10° E 01:16:10 39° NE 01:16:10 39° NE visible
04 Oct 3.2 02:54:06 10° ESE 03:00:40 80° NNE 03:03:31 37° NW visible
04 Oct 3.7 04:37:57 10° SSE 04:44:02 40° SW 04:50:10 10° WNW visible
05 Oct 5.1 00:29:22 10° ENE 00:31:38 22° ENE 00:31:38 22° ENE visible
05 Oct 3.6 02:11:37 10° E 02:18:01 59° NNE 02:18:59 54° NNW visible
05 Oct 3.2 03:54:28 10° SE 04:00:59 68° SW 04:06:19 16° WNW visible
05 Oct 5.7 23:46:50 10° ENE 23:47:04 11° ENE 23:47:04 11° ENE visible
06 Oct 4.1 01:29:15 10° E 01:34:25 45° NE 01:34:25 45° NE visible
06 Oct 3.3 03:11:36 10° ESE 03:18:10 81° NNE 03:21:45 30° NW visible
06 Oct 3.8 04:55:28 10° SSE 05:01:33 40° SW 05:07:40 10° WNW visible
07 Oct 4.9 00:46:53 10° ENE 00:49:50 27° NE 00:49:50 27° NE visible
07 Oct 3.6 02:29:07 10° E 02:35:31 59° NNE 02:37:10 47° NNW visible
07 Oct 3.2 04:11:59 10° SE 04:18:31 68° SW 04:24:31 13° WNW visible
08 Oct 5.5 00:04:20 10° ENE 00:05:14 14° ENE 00:05:14 14° ENE visible
08 Oct 4.0 01:46:46 10° E 01:52:34 48° NNE 01:52:34 48° NNE visible
08 Oct 3.3 03:29:07 10° ESE 03:35:41 81° NNE 03:39:55 24° NW visible
08 Oct 3.8 05:12:59 10° SSE 05:19:04 40° SW 05:25:10 10° WNW visible
09 Oct 4.7 01:04:23 10° ENE 01:07:57 31° NE 01:07:57 31° NE visible
09 Oct 3.6 02:46:37 10° E 02:53:02 59° NNE 02:55:18 40° NW visible
09 Oct 3.3 04:29:29 10° SE 04:36:01 68° SW 04:42:33 10° WNW visible
